This is the latest recevied weather packets stored in our database for station/object SALT. If no packets are shown the sender has not sent any weather packets the latest 10 day(s).
| Time | Temp. | Humidity | Pressure | Rain* | Wind** | Luminosity | Snow |
|---|---|---|---|---|---|---|---|
| 1778140465 | 8.89° C | 57% | 1018.9 hPa | 0 mm | - | - | - |
| 1778139860 | 8.89° C | 58% | 1018.8 hPa | 0 mm | - | - | - |
| 1778139258 | 8.89° C | 59% | 1018.9 hPa | 0 mm | - | - | - |
| 1778138655 | 8.89° C | 59% | 1018.9 hPa | 0 mm | - | - | - |
| 1778138052 | 9.44° C | 57% | 1018.9 hPa | 0 mm | - | - | - |
| 1778137450 | 9.44° C | 56% | 1019.2 hPa | 0 mm | - | - | - |
| 1778136847 | 8.89° C | 56% | 1019.4 hPa | 0 mm | - | - | - |
| 1778136242 | 8.33° C | 58% | 1019.4 hPa | 0 mm | - | - | - |
| 1778135640 | 8.89° C | 57% | 1019.4 hPa | 0 mm | - | - | - |
| 1778135037 | 8.89° C | 55% | 1019.2 hPa | 0 mm | - | - | - |
| 1778134434 | 8.89° C | 56% | 1019 hPa | 0 mm | - | - | - |
| 1778133909 | 9.44° C | 56% | 1019.3 hPa | 0 mm | - | - | - |
| 1778133832 | 9.44° C | 56% | 1019.3 hPa | 0 mm | - | - | - |
| 1778133229 | 10° C | 52% | 1019.3 hPa | 0 mm | - | - | - |
| 1778132624 | 10° C | 54% | 1019.1 hPa | 0 mm | - | - | - |
| 1778132022 | 9.44° C | 60% | 1019.3 hPa | 0 mm | - | - | - |
| 1778131419 | 10° C | 60% | 1019.4 hPa | 0 mm | - | - | - |
| 1778130866 | 10° C | 63% | 1019.4 hPa | 0 mm | - | - | - |
| 1778130817 | 10° C | 63% | 1019.4 hPa | 0 mm | - | - | - |
| 1778130214 | 10.56° C | 64% | 1019.5 hPa | 0 mm | - | - | - |
| 1778129611 | 10° C | 63% | 1019.6 hPa | 0 mm | - | - | - |
| 1778129006 | 10° C | 66% | 1019.6 hPa | 0 mm | - | - | - |
| 1778128404 | 10° C | 65% | 1019.8 hPa | 0 mm | - | - | - |
| 1778127801 | 10° C | 69% | 1019.9 hPa | 0 mm | - | - | - |
| 1778127198 | 10.56° C | 71% | 1019.9 hPa | 0 mm | - | - | - |
* Rain latest 24 hours (hover to see other rain measurements)
** Current wind speed in m/s (hover to see current wind gust speed)